Pocatello, ID

5:24 PM MDT on May 29, 2017 (GMT -0600)
Pocatello Regional

Weather History for KPIH - August, 2013

Change the Weather History Date:

Friday, August 16, 2013

  Actual Average Record
Temperature  
Mean Temperature 71 °F 69 °F  
Max Temperature 96 °F 88 °F 97 °F (1958)
Min Temperature 46 °F 51 °F 39 °F (1968)
Degree Days  
Heating Degree Days 0 1  
Month to date heating degree days 0 3  
Since 1 June heating degree days 90 154  
Since 1 July heating degree days 0 23  
Cooling Degree Days 6 5  
Month to date cooling degree days 111 92  
Year to date cooling degree days 505 315  
Since 1 June cooling degree days 496 310  
Growing Degree Days 21 (Base 50)    
Moisture  
Dew Point 29 °F    
Average Humidity 29    
Maximum Humidity 50    
Minimum Humidity 7    
Precipitation  
Precipitation 0.00 in 0.02 in 0.61 in (1995)
Month to date precipitation 0.01 0.30  
Year to date precipitation 3.83 7.76  
Snow  
Snow 0.00 in - - ()
Month to date snowfall 0.0  
Since 1 June snowfall 0.0  
Since 1 July snowfall 0.0  
Snow Depth 0.00 in    
Sea Level Pressure  
Sea Level Pressure 29.92 in    
Wind  
Wind Speed 6 mph (West)    
Max Wind Speed 17 mph    
Max Gust Speed 22 mph    
Visibility 10 miles    
Events      
T = Trace of Precipitation, MM = Missing Value Source: NWS Daily Summary

Daily Weather History Graph

Daily Weather History Graph

Search for Another Location

Airport or City:

Trip Planner

Search our weather history database for the weather conditions in past years. The results will help you decide how hot, cold, wet, or windy it might be!

Date:

Astronomy

Aug. 16, 2013 Rise Set
Actual Time 6:37 AM MDT 8:30 PM MDT
Civil Twilight 6:07 AM MDT 9:00 PM MDT
Nautical Twilight 5:30 AM MDT 9:37 PM MDT
Astronomical Twilight 4:49 AM MDT 10:18 PM MDT
Moon 4:56 PM MDT (8/16) 1:41 AM MDT (8/16)
Length of Visible Light 14h 53m
Length of Day
13h 52m
Waxing Gibbous, 75% of the Moon is Illuminated
Aug 16
Waxing Gibbous
Aug 20
Full
Aug 28
Last Quarter
Sep 5
New
Sep 12
First Quarter

Hourly Weather History & Observations

Time (MDT) Temp. Dew Point Humidity Pressure Visibility Wind Dir Wind Speed Gust Speed Precip Events Conditions
12:53 AM 61.0 °F 25.0 °F 25% 29.89 in 10.0 mi WNW 8.1 mph - N/A   Clear
1:53 AM 57.0 °F 21.9 °F 26% 29.89 in 10.0 mi NE 5.8 mph - N/A   Clear
2:53 AM 57.9 °F 24.1 °F 27% 29.88 in 10.0 mi Calm Calm - N/A   Clear
3:53 AM 52.0 °F 28.0 °F 40% 29.89 in 10.0 mi North 8.1 mph - N/A   Clear
4:53 AM 51.1 °F 33.1 °F 50% 29.90 in 10.0 mi Variable 3.5 mph - N/A   Clear
5:53 AM 48.9 °F 30.9 °F 50% 29.91 in 10.0 mi North 5.8 mph - N/A   Clear
6:53 AM 50.0 °F 32.0 °F 50% 29.94 in 10.0 mi SW 3.5 mph - N/A   Clear
7:53 AM 57.0 °F 33.1 °F 40% 29.95 in 10.0 mi South 3.5 mph - N/A   Clear
8:53 AM 69.1 °F 33.1 °F 26% 29.96 in 10.0 mi ESE 3.5 mph - N/A   Clear
9:53 AM 82.0 °F 24.1 °F 12% 29.94 in 10.0 mi WSW 5.8 mph - N/A   Clear
10:53 AM 78.1 °F 39.9 °F 25% 29.96 in 10.0 mi WNW 3.5 mph - N/A   Clear
11:53 AM 84.9 °F 36.0 °F 17% 29.96 in 10.0 mi WNW 4.6 mph - N/A   Clear
12:53 PM 91.0 °F 21.0 °F 8% 29.96 in 10.0 mi West 10.4 mph - N/A   Clear
1:53 PM 93.9 °F 23.0 °F 8% 29.95 in 10.0 mi WSW 8.1 mph - N/A   Clear
2:53 PM 95.0 °F 26.1 °F 9% 29.93 in 10.0 mi West 13.8 mph - N/A   Clear
3:53 PM 95.0 °F 28.9 °F 10% 29.92 in 10.0 mi West 16.1 mph - N/A   Clear
4:53 PM 95.0 °F 24.1 °F 8% 29.92 in 10.0 mi West 9.2 mph 17.3 mph N/A   Clear
5:53 PM 95.0 °F 23.0 °F 8% 29.91 in 10.0 mi WNW 9.2 mph - N/A   Clear
6:53 PM 93.0 °F 23.0 °F 8% 29.91 in 10.0 mi WNW 4.6 mph - N/A   Clear
7:53 PM 84.9 °F 28.0 °F 13% 29.91 in 10.0 mi South 3.5 mph - N/A   Clear
8:53 PM 75.9 °F 26.1 °F 16% 29.90 in 10.0 mi SSE 5.8 mph - N/A   Clear
9:53 PM 73.9 °F 33.1 °F 22% 29.89 in 10.0 mi East 5.8 mph - N/A   Clear
10:53 PM 72.0 °F 27.0 °F 19% 29.91 in 10.0 mi Calm Calm - N/A   Clear
11:53 PM 59.0 °F 37.9 °F 46% 29.93 in 10.0 mi WNW 9.2 mph - N/A   Clear